Virginia Peak (RGX), Nevada Weather observations

 Day   Time    Ave.   Ave.  Ave.  Vector  Max.   Total    Solar  
  of    of     Air    Rel.  Wind   Wind   Wind  Precip.   Rad.   
Year   Day     Temp.  Hum.  Speed  Dir.   Gust                   
2014   (PST)    F      %     mph   deg.    mph    in.     W/m2  
----------------------------------------------------------------
 209    3:15   62.0    29  999.0   299    17.4   999.00     999
 209    3:30   62.0    29   12.0   307    13.2   999.00     999
 209    3:45   63.0   999   13.2   999    14.4   999.00     999
 209    4:00   63.0    28   15.6   293    15.6   999.00     999
 209    4:15   62.0    29   15.6   282    16.2   999.00     999
 209    4:30   63.0    28   14.4   293    15.6   999.00     999
 209    4:45   63.0    28   13.8   290    15.0   999.00     999
 209    5:00   63.0    28   12.6   295    14.4   999.00     999
 209    5:15   63.0    28   12.0   294    13.2   999.00     999
 209    5:30   63.0    28   13.2   292    13.2   999.00     999
 209    5:45   63.0    28   13.8   287    13.8   999.00     999
 209    6:00   63.0    29   12.6   292    15.0   999.00     999
 209    6:15   63.0    29    5.4   298    13.2   999.00     999
 209    6:30  999.0    29    5.4    73     6.0   999.00     999
 209    6:45   66.0    31  999.0   322     6.6   999.00     999
 209    7:00   67.0   999    0.6   999     4.2   999.00     999
 209    7:15   68.0    27  999.0   304     4.8   999.00     999
 209    7:30   67.0    26  999.0   999     6.6   999.00     999
 209    7:45   67.0    31  106.6   999    31.6   999.00     999
 209    8:00   71.0    26    1.8   262     4.2   999.00     999
 209    8:15   70.0    24    2.4    78   999.0   999.00     999
 209    8:30   70.0    25    1.2   284     5.4   999.00     999
 209    8:45   72.0    24    4.2   263     4.2   999.00     999
 209    9:00   72.0    24    3.0   261     6.0   999.00     999
 209    9:15   72.0    24    2.4   200     4.8   999.00     999
 209    9:30  999.0    24    3.0   320     7.8   999.00     999
 209    9:45   72.0    24    6.0   252     7.2   999.00     999
 209   10:00   75.0    25    5.4   174     8.4   999.00     999
 209   10:15   75.0    25    5.4   225    10.2   999.00     999
 209   10:30   72.0    24    8.4   292    14.4   999.00     999
 209   10:45   72.0    24    4.8   214     9.6   999.00     999
 209   11:00   75.0    25    6.6   129     7.8   999.00     999
 209   11:15   73.0    24    7.2   274    10.2   999.00     999
 209   11:30   72.0    25    6.6   257    12.6   999.00     999
 209   11:45   73.0    25    7.2   277    13.8   999.00     999
 209   12:00  999.0   999  999.0   999   999.0   999.00     999
 209   12:15   73.0    26   10.2   999    14.4   999.00     999
 209   12:30   73.0    27   14.4   258    17.4   999.00     999
 209   12:45   73.0    27   10.8   254    14.4   999.00     999
 209   13:00   73.0    26   12.0   273    19.2   999.00     999
 209   13:15   73.0    25   10.8   254    16.8   999.00     999
 209   13:30   73.0    26   16.8   251   999.0   999.00     999
 209   13:45   73.0    25   13.8   263    21.6   999.00     999
 209   14:00   72.0    26   15.0   312    18.0   999.00     999
 209   14:15   73.0    27   16.8   310    19.2   999.00     999
 209   14:30   72.0    26   13.8   278    22.8   999.00     999
 209   14:45   73.0    26   19.2   291    21.0   999.00     999
 209   15:00   73.0    26   12.6   279    18.6   999.00     999
 209   15:15   73.0    26   10.2   326    17.4   999.00     999
 209   15:30   72.0   999    9.6   258    13.2   999.00     999
 209   15:45   71.0    27    5.4   302    12.6   999.00     999
 209   16:00   72.0    27    3.0   317     8.4   999.00     999
 209   16:15   72.0    26    9.6   999     9.6   999.00     999
 209   16:30   72.0    26    7.8   107     9.6   999.00     999
 209   16:45   72.0    26    1.8   333   999.0   999.00     999
 209   17:00   71.0    27   12.0   289    12.0   999.00     999
 209   17:15   65.0    38   33.0   224    33.6   999.00     999
 209   17:30   64.0    40   22.8   238    34.2   999.00     999
 209   17:45   60.0   999   29.4   252    34.2   999.00     999
 209   18:00   62.0    44   31.8   255    36.6   999.00     999
 209   18:15   61.0    49   28.8   999    39.0   999.00     999
 209   18:30   60.0    48   22.8   229    31.8   999.00     999
 209   18:45   61.0    46   20.4   247    23.4   999.00     999
 209   19:00   62.0    43   10.8   251   999.0   999.00     999
 209   19:15   64.0    37  999.0   269    14.4   999.00     999
 209   19:30   64.0    38   12.0   277    15.6   999.00     999
 209   19:45   64.0    39   19.8   260    22.8   999.00     999
 209   20:00   63.0    39   19.8   266    22.2   999.00     999
 209   20:15   62.0    43   19.8   278    22.2   999.00     999
 209   20:30   61.0    43   21.6   267    22.8   999.00     999
 209   20:45  999.0   999   27.6   259    27.6   999.00     999
 209   21:00  999.0   999  999.0   999   999.0   999.00     999
 209   21:15   61.0    44   28.2   257    30.0   999.00     999
 209   21:30  999.0    46   25.8   259    28.8   999.00     999
 209   21:45  999.0    47   24.0   260    33.4   999.00     999
 209   22:00   60.0    48   24.0   999    25.2   999.00     999
 209   22:15   60.0    47   21.8   264    25.8   999.00     999
 209   22:30   60.0    46   24.0   278    24.6   999.00     999
 209   22:45   60.0    47   21.0   266    23.4   999.00     999
 209   23:00   59.0    46   21.0   269    23.4   999.00     999
 209   23:15  999.0    46   21.6   269    22.2   999.00     999
 209   23:30   60.0    45   19.8   274    21.6   999.00     999
 209   23:45   60.0    43   19.8   285    21.6   999.00     999
 210    0:00   60.0    43   20.4   278    22.8   999.00     999
 210    0:15   60.0    43   21.6   279    23.4   999.00     999
 210    0:30   59.0    45   22.2   999    24.0   999.00     999
 210    0:45   59.0    45   20.4   277    24.0   999.00     999
 210    1:00   59.0    45   22.2   273    22.8   999.00     999
 210    1:15   58.0    45   22.8   273    25.2   999.00     999
 210    1:30   58.0    45   22.2   274    25.2   999.00     999
 210    1:45   58.0   999  999.0   277   999.0   999.00     999
 210    2:00   56.0    44   24.6   281    26.4   999.00     999
 210    2:15   56.0    44   26.4   276   999.0   999.00     999
 210    2:30   58.0    44   26.4   276    27.0   999.00     999
 210    2:45   57.0    44   26.4   274    29.4   999.00     999
 210    3:00   57.0    43   25.8   275    30.0   999.00     999

Return to Virginia Peak (RGX) graphs page.


Western Regional Climate Center,wrcc@dri.edu